sat.trackr.live / text

‹ back to catalog

STARLINK-35474

NORAD 66437 · 2025-259R

PAYLOAD ACTIVE UNKNOWN

§ Identity

Operator
Country
US
Launch date
2025-11-11
Launch site
AFETR
Launch vehicle
Mass (kg)
RCS (m²)

Purposes: comms

External: N2YO · Heavens-Above · Gunter

§ Orbital elements

Epoch: 2026-05-24T21:23:57.974208Z

Period
94.27 min
Inclination
43.0033°
Eccentricity
0.0002617
Mean motion
15.27590774 rev/d
Perigee alt
481.2 km
Apogee alt
484.8 km
Semi-major
6,861.2 km
B*
4.5397e-4
RAAN
204.1509°
Arg perigee
267.8167°
Mean anomaly
92.2384°
Rev number
3,114

§ Raw data

STARLINK-354741 66437U 25259R   26144.89164322  .00012255  00000+0  45397-3 0  99962 66437  43.0033 204.1509 0002617 267.8167  92.2384 15.27590774 31149

JSON: /api/v1/satellites/66437 · /tle

For live sub-satellite position, see the globe view (requires WebGL).

§ Visibility from observer

Set your observer location to see the next 7 days of passes ≥ 10°. The values pass through the URL so the page stays shareable.

No JS? Fill the form by hand. The geolocation button needs JavaScript.